Home   Weather   Germany   Nettetal   Past weeks
Flag for Germany

Past Weather in Nettetal, North Rhine-Westphalia, Germany — Yesterday and Last 2 Weeks

Currently: 41 °F. Overcast. (Weather station: Monchengladbach Airport, Germany). See more current weather

Past Weather in Nettetal — Graph

°F

Nettetal Temperature Yesterday

Maximum temperature yesterday: 45 °F (at 2:50 pm)
Minimum temperature yesterday: 36 °F (at 12:20 am)
Average temperature yesterday: 39 °F

High & Low Weather Summary for the Past Weeks

 TemperatureHumidityPressure
High68 °F (Feb 24, 1:50 pm)100% (Feb 26, 1:20 am)30.74 "Hg (Feb 26, 1:20 am)
Low23 °F (Mar 6, 5:20 am)34% (Mar 5, 5:20 pm)30.07 "Hg (Feb 22, 8:50 am)
Average44 °F76%30.39 "Hg
* Reported Feb 22 8:50 am — Mar 9 1:20 am, Nettetal. Weather by CustomWeather, © 2021

Note: Actual official high and low records may vary slightly from our data, if they occured in-between our weather recording intervals... More about our weather records

Nettetal Weather History for the Previous 24 Hours

Scroll right to see more
 ConditionsComfort  
Time TempWeatherWind HumidityBarometerVisibility
1:20 am
Tue, Mar 9
41 °FOvercast.3 mph81%30.12 "HgN/A
12:50 am37 °FMostly cloudy.No wind93%30.12 "Hg4 mi
12:20 am37 °FMore clouds than sun.No wind93%30.12 "Hg4 mi
11:50 pm
Mon, Mar 8
37 °FBroken clouds.No wind93%30.15 "Hg4 mi
11:20 pm39 °FMore clouds than sun.2 mph87%30.15 "Hg4 mi
10:50 pm39 °FOvercast.2 mph87%30.15 "Hg4 mi
10:20 pm39 °FBroken clouds.2 mph87%30.15 "Hg4 mi
9:50 pm39 °FPassing clouds.2 mph87%30.15 "Hg4 mi
9:20 pm39 °FPassing clouds.3 mph87%30.15 "Hg4 mi
8:50 pm39 °FPassing clouds.3 mph87%30.15 "Hg4 mi
8:20 pm39 °FPassing clouds.3 mph87%30.15 "Hg5 mi
7:50 pm39 °FClear.3 mph87%30.15 "Hg10 mi
7:20 pm37 °FClear.2 mph87%30.15 "Hg10 mi
6:50 pm39 °FClear.2 mph81%30.15 "Hg10 mi
6:20 pm41 °FClear.1 mph81%30.18 "Hg10 mi
5:50 pm45 °FPassing clouds.6 mph76%30.15 "HgN/A
5:20 pm45 °FClear.2 mph66%30.18 "Hg10 mi
4:50 pm45 °FClear.2 mph71%30.18 "Hg10 mi
4:20 pm45 °FPassing clouds.2 mph71%30.18 "HgN/A
3:50 pm45 °FPassing clouds.3 mph71%30.18 "HgN/A
3:20 pm43 °FPassing clouds.3 mph76%30.18 "HgN/A
2:50 pm45 °FPassing clouds.5 mph76%30.18 "Hg6 mi
2:20 pm43 °FPassing clouds.6 mph76%30.21 "Hg6 mi
1:50 pm43 °FPassing clouds.5 mph76%30.21 "Hg5 mi
1:20 pm43 °FPassing clouds.3 mph76%30.21 "Hg4 mi
12:50 pm41 °FMostly cloudy.7 mph81%30.24 "Hg4 mi
12:20 pm41 °FFog.6 mph81%30.24 "Hg3 mi
11:50 am39 °FOvercast.6 mph87%30.24 "Hg3 mi
11:20 am39 °FOvercast.7 mph81%30.24 "Hg4 mi
10:50 am39 °FOvercast.7 mph81%30.21 "Hg4 mi
10:20 am39 °FOvercast.5 mph75%30.21 "Hg6 mi
9:50 am39 °FPassing clouds.5 mph75%30.21 "Hg5 mi
9:20 am37 °FPartly sunny.5 mph81%30.24 "Hg4 mi
8:50 am37 °FPartly sunny.5 mph81%30.21 "Hg4 mi
8:20 am37 °FScattered clouds.2 mph81%30.21 "Hg4 mi
7:50 am36 °FClear.3 mph87%30.21 "Hg4 mi
7:20 am36 °FOvercast.2 mph81%30.21 "Hg6 mi
6:50 am36 °FOvercast.2 mph81%30.21 "HgN/A
6:20 am36 °FOvercast.3 mph81%30.21 "HgN/A
5:50 am36 °FOvercast.3 mph81%30.21 "HgN/A
5:20 am36 °FOvercast.3 mph81%30.18 "HgN/A
4:50 am36 °FOvercast.3 mph81%30.18 "HgN/A
4:20 am36 °FOvercast.3 mph81%30.18 "HgN/A
3:50 am36 °FOvercast.3 mph81%30.18 "HgN/A
3:20 am36 °FOvercast.2 mph75%30.21 "HgN/A
2:50 am37 °FOvercast.5 mph70%30.21 "HgN/A
2:20 am36 °FMore clouds than sun.2 mph81%30.21 "HgN/A
Weather by CustomWeather, © 2021

See weather overview